PHENX84 YLTV-YRMH

Flight info

Callsign PHENX84
Flight time N/A
Altitude 2000
Route 3809S14647E YLI7T 3754S14518E
Aircraft EC45/L-SDFGRY/C

Departure

Time N/A
Airport Latrobe Valley Airport (YLTV)

Arrival

Time 2026-04-20 11:37
Airport Royal Melbourne Hospital Helipad (YRMH)
Time Latitude Longitude Altitude Speed Heading
2026-04-20 11:18 -37.90749 145.29315 315 ft 2 kts 332°
2026-04-20 11:18 -37.90741 145.29318 302 ft 1 kts 328°
2026-04-20 11:18 -37.90739 145.29321 297 ft 0 kts 321°
2026-04-20 11:24 -37.90733 145.29323 309 ft 8 kts 312°
2026-04-20 11:24 -37.90751 145.29205 433 ft 9 kts 22°
2026-04-20 11:25 -37.90725 145.29198 392 ft 2 kts 25°
2026-04-20 11:25 -37.90723 145.29201 350 ft 1 kts 26°
2026-04-20 11:25 -37.90725 145.29201 310 ft 1 kts 32°
2026-04-20 11:25 -37.90724 145.29201 309 ft 0 kts 50°
2026-04-20 11:27 -37.90727 145.29200 352 ft 1 kts 42°
2026-04-20 11:27 -37.90664 145.29209 685 ft 21 kts 292°
2026-04-20 11:27 -37.90528 145.28703 849 ft 98 kts 282°
2026-04-20 11:28 -37.90269 145.27933 1117 ft 88 kts 287°
2026-04-20 11:28 -37.90057 145.27205 1482 ft 91 kts 287°
2026-04-20 11:28 -37.89869 145.26421 1765 ft 93 kts 283°
2026-04-20 11:28 -37.89688 145.25639 1891 ft 92 kts 285°
2026-04-20 11:29 -37.89501 145.24782 1909 ft 116 kts 285°
2026-04-20 11:29 -37.89252 145.23753 1966 ft 121 kts 286°
2026-04-20 11:29 -37.89001 145.22735 1965 ft 121 kts 287°
2026-04-20 11:29 -37.88759 145.21714 1972 ft 121 kts 287°
2026-04-20 11:30 -37.88525 145.20708 1969 ft 121 kts 287°
2026-04-20 11:30 -37.88286 145.19671 1976 ft 121 kts 286°
2026-04-20 11:30 -37.88032 145.18660 1973 ft 121 kts 290°
2026-04-20 11:30 -37.87742 145.17676 1979 ft 121 kts 291°
2026-04-20 11:31 -37.87445 145.16686 1978 ft 120 kts 291°
2026-04-20 11:31 -37.87141 145.15696 1972 ft 121 kts 293°
2026-04-20 11:31 -37.86820 145.14717 1973 ft 121 kts 293°
2026-04-20 11:31 -37.86486 145.13740 1978 ft 121 kts 295°
2026-04-20 11:32 -37.86135 145.12775 1973 ft 120 kts 296°
2026-04-20 11:32 -37.85764 145.11824 1978 ft 121 kts 297°
2026-04-20 11:32 -37.85390 145.10871 1929 ft 120 kts 297°
2026-04-20 11:32 -37.85018 145.09924 1900 ft 120 kts 297°
2026-04-20 11:33 -37.84646 145.08983 1721 ft 119 kts 297°
2026-04-20 11:33 -37.84262 145.08065 1544 ft 118 kts 298°
2026-04-20 11:33 -37.83871 145.07152 1446 ft 118 kts 299°
2026-04-20 11:33 -37.83608 145.06547 1420 ft 119 kts 299°
2026-04-20 11:34 -37.83075 145.05326 1393 ft 118 kts 299°
2026-04-20 11:34 -37.82810 145.04726 1424 ft 119 kts 300°
2026-04-20 11:34 -37.82413 145.03825 1471 ft 110 kts 299°
2026-04-20 11:34 -37.82091 145.03058 1476 ft 90 kts 299°
2026-04-20 11:35 -37.81804 145.02361 1472 ft 90 kts 298°
2026-04-20 11:35 -37.81506 145.01660 1477 ft 90 kts 299°
2026-04-20 11:35 -37.81211 145.00958 1480 ft 91 kts 297°
2026-04-20 11:35 -37.80920 145.00253 1488 ft 90 kts 296°
2026-04-20 11:36 -37.80623 144.99555 1484 ft 90 kts 297°
2026-04-20 11:36 -37.80332 144.98861 1488 ft 89 kts 297°
2026-04-20 11:36 -37.80048 144.98164 1477 ft 93 kts 293°
2026-04-20 11:36 -37.79870 144.97310 1467 ft 107 kts 278°
2026-04-20 11:37 -37.79742 144.96388 622 ft 88 kts 266°
2026-04-20 11:37 -37.79865 144.95888 415 ft 10 kts 245°
2026-04-20 11:37 -37.79883 144.95774 350 ft 7 kts 244°
2026-04-20 11:38 -37.79894 144.95730 326 ft 7 kts 245°
2026-04-20 11:38 -37.79905 144.95673 295 ft 6 kts 245°
2026-04-20 11:38 -37.79911 144.95626 229 ft 3 kts 245°
2026-04-20 11:38 -37.79916 144.95614 210 ft 1 kts 246°
2026-04-20 11:39 -37.79920 144.95610 197 ft 1 kts 245°
2026-04-20 11:39 -37.79922 144.95607 202 ft 0 kts 244°
2026-04-20 11:46 -37.79920 144.95616 207 ft 1 kts 245°
2026-04-20 11:46 -37.79916 144.95619 290 ft 0 kts 246°
2026-04-20 11:46 -37.79915 144.95622 387 ft 1 kts 246°
2026-04-20 11:47 -37.79918 144.95631 384 ft 2 kts 246°
2026-04-20 11:47 -37.79927 144.95649 383 ft 3 kts 246°
2026-04-20 11:47 -37.79943 144.95680 380 ft 4 kts 246°
2026-04-20 11:47 -37.79937 144.95712 386 ft 5 kts 131°
2026-04-20 11:48 -37.79967 144.95761 503 ft 18 kts 138°
2026-04-20 11:48 -37.80153 144.95965 559 ft 48 kts 132°
2026-04-20 11:48 -37.80366 144.96305 530 ft 49 kts 127°
2026-04-20 11:48 -37.80559 144.96650 511 ft 48 kts 121°
2026-04-20 11:49 -37.80730 144.97011 504 ft 48 kts 123°
2026-04-20 11:49 -37.80953 144.97327 503 ft 48 kts 137°
2026-04-20 11:49 -37.81171 144.97640 499 ft 47 kts 132°
2026-04-20 11:49 -37.81384 144.97954 498 ft 47 kts 133°
2026-04-20 11:50 -37.81625 144.98234 495 ft 48 kts 149°
2026-04-20 11:50 -37.81933 144.98294 500 ft 44 kts 199°
2026-04-20 11:50 -37.82148 144.98060 500 ft 41 kts 247°
2026-04-20 11:50 -37.82249 144.97722 500 ft 44 kts 253°
2026-04-20 11:51 -37.82472 144.97284 489 ft 72 kts 244°
2026-04-20 11:51 -37.82689 144.96721 498 ft 70 kts 246°
2026-04-20 11:51 -37.82893 144.96105 474 ft 90 kts 252°
2026-04-20 11:51 -37.83097 144.95355 501 ft 88 kts 251°
2026-04-20 11:52 -37.83146 144.94596 503 ft 88 kts 288°
2026-04-20 11:52 -37.82828 144.94034 802 ft 72 kts 312°
2026-04-20 11:52 -37.82391 144.93677 1160 ft 79 kts 335°
2026-04-20 11:52 -37.81888 144.93383 1352 ft 79 kts 340°
2026-04-20 11:53 -37.81366 144.93153 1414 ft 85 kts 345°
2026-04-20 11:53 -37.80696 144.92901 1457 ft 111 kts 344°
2026-04-20 11:53 -37.79968 144.92635 1479 ft 107 kts 344°
2026-04-20 11:53 -37.79253 144.92361 1478 ft 107 kts 345°
2026-04-20 11:54 -37.78539 144.92083 1486 ft 108 kts 344°
2026-04-20 11:54 -37.77823 144.91803 1490 ft 108 kts 344°
2026-04-20 11:54 -37.77108 144.91521 1491 ft 108 kts 344°
2026-04-20 11:54 -37.76393 144.91235 1491 ft 108 kts 344°
2026-04-20 11:55 -37.75682 144.90957 1490 ft 106 kts 344°
2026-04-20 11:55 -37.74972 144.90692 1489 ft 106 kts 344°
2026-04-20 11:55 -37.74264 144.90429 1489 ft 106 kts 344°
2026-04-20 11:55 -37.73553 144.90167 1489 ft 107 kts 344°
2026-04-20 11:56 -37.72836 144.89902 1491 ft 106 kts 344°
2026-04-20 11:56 -37.72131 144.89617 1492 ft 106 kts 338°
2026-04-20 11:56 -37.71492 144.89146 1490 ft 107 kts 326°
2026-04-20 11:56 -37.70881 144.88616 1483 ft 106 kts 325°
2026-04-20 11:57 -37.70253 144.88091 1376 ft 107 kts 328°
2026-04-20 11:57 -37.69611 144.87580 1244 ft 109 kts 327°
2026-04-20 11:57 -37.68975 144.87077 1110 ft 109 kts 325°
2026-04-20 11:57 -37.68347 144.86554 928 ft 110 kts 322°
2026-04-20 11:58 -37.67769 144.86063 680 ft 80 kts 330°
2026-04-20 11:58 -37.67487 144.85882 566 ft 13 kts 282°
2026-04-20 11:58 -37.67462 144.85869 527 ft 7 kts 268°
2026-04-20 11:58 -37.67442 144.85780 478 ft 8 kts 265°
2026-04-20 11:59 -37.67426 144.85710 407 ft 8 kts 264°
2026-04-20 11:59 -37.67420 144.85652 361 ft 3 kts 264°
2026-04-20 11:59 -37.67424 144.85642 346 ft 1 kts 264°
2026-04-20 11:59 -37.67424 144.85640 334 ft 0 kts 264°